FW0321 Weather Reports


time (UTC)temp
F
wind
direction
speed
knots
gust
knots
rain 1hr
in
rain 24hr
in
rain mn
in
humidity
%
barometer
mb
20260508082359 45 186 2.6 6.1 0.00 0.03 0.02 68 1023.8
20260508081459 45 184 2.6 6.1 0.00 0.03 0.02 71 1023.8
20260508080559 44 188 2.6 4.3 0.00 0.03 0.02 73 1023.9
20260508075659 44 181 1.7 5.2 0.00 0.03 0.02 76 1023.8
20260508074759 43 142 2.6 7.8 0.00 0.03 0.02 78 1023.7
20260508073859 44 160 1.7 5.2 0.00 0.03 0.02 77 1023.6
20260508072959 43 137 2.6 6.1 0.00 0.03 0.02 78 1023.6
20260508065359 42 115 0.9 5.2 0.00 0.03 0.02 85 1023.5
20260508063559 40 115 2.6 6.1 0.00 0.03 0.02 87 1023.4
20260508062659 40 150 0.9 4.3 0.00 0.03 0.02 89 1023.3
20260508061759 40 131 2.6 5.2 0.00 0.03 0.02 90 1023.3
20260508060859 39 120 2.6 4.3 0.00 0.03 0.02 90 1023.2
20260508054158 38 83 0.9 2.6 0.00 0.03 0.02 92 1023.0
20260508052359 38 83 0.0 2.6 0.00 0.03 0.02 92 1022.9
20260508051458 38 82 0.9 1.7 0.00 0.03 0.02 93 1022.9
20260508050558 38 81 0.9 2.6 0.00 0.03 0.02 93 1022.8
20260508044759 37 78 0.9 2.6 0.00 0.03 0.02 93 1022.7
20260508043859 37 71 0.0 2.6 0.00 0.03 0.02 93 1022.6
20260508042959 37 67 0.0 2.6 0.00 0.03 0.02 93 1022.4
20260508042058 36 0 0.0 0.0 0.00 0.03 0.02 93 1022.5
20260508041159 36 64 0.0 2.6 0.00 0.03 0.02 93 1022.4
20260508040258 36 65 0.9 2.6 0.00 0.03 0.02 93 1022.4
20260508035358 36 53 1.7 3.5 0.01 0.03 0.02 93 1022.3
20260508033558 36 33 0.9 2.6 0.01 0.03 0.02 93 1022.4
20260508032658 35 31 0.9 2.6 0.02 0.03 0.02 93 1022.4
20260508031758 35 352 0.9 2.6 0.02 0.03 0.02 93 1022.3
20260508030858 35 326 0.9 2.6 0.02 0.03 0.02 93 1022.2
20260508025958 35 324 0.9 1.7 0.02 0.03 0.02 93 1022.1
20260508025058 35 324 0.0 1.7 0.01 0.02 0.02 93 1022.0
20260508024200 35 323 0.9 1.7 0.01 0.02 0.02 93 1022.1
20260508023258 35 322 0.9 2.6 0.00 0.02 0.01 93 1022.2
20260508021458 35 0 0.0 0.0 0.00 0.02 0.01 92 1022.0
20260508020558 35 340 0.0 1.7 0.00 0.02 0.01 92 1022.0
20260508015658 34 340 0.9 1.7 0.01 0.02 0.01 92 1022.0
20260508014758 35 340 0.9 1.7 0.01 0.02 0.01 92 1021.9
20260508013858 35 340 0.9 2.6 0.01 0.02 0.01 92 1021.9
20260508012958 35 330 1.7 3.5 0.01 0.02 0.01 92 1021.8
20260508005358 35 264 0.9 2.6 0.00 0.01 0.00 92 1021.5
20260508004458 35 264 0.0 1.7 0.00 0.01 0.00 92 1021.5
20260508002658 35 264 0.9 1.7 0.00 0.01 0.00 91 1021.0
20260508001758 36 264 1.7 2.6 0.00 0.01 0.00 91 1020.9
20260508000858 36 257 1.7 5.2 0.00 0.01 0.00 91 1020.9
20260507235958 36 239 2.6 4.3 0.00 0.01 0.00 92 1021.0
20260507235059 36 245 2.6 6.1 0.00 0.01 0.00 92 1020.9
20260507233258 35 280 3.5 7.8 0.00 0.01 0.00 92 1020.8
20260507232358 35 266 5.2 12.2 0.00 0.01 0.00 92 1020.7
20260507230558 35 256 10.4 16.5 0.00 0.01 0.00 91 1020.7
20260507225659 36 245 5.2 13.9 0.00 0.01 0.00 91 1020.8
20260507224758 36 77 1.7 3.5 0.00 0.01 0.00 91 1020.5
20260507223900 36 77 1.7 3.5 0.00 0.01 0.00 91 1020.3
20260507222959 36 77 1.7 3.5 0.00 0.01 0.00 90 1020.3
20260507222059 35 78 1.7 2.6 0.00 0.02 0.00 90 1020.3
20260507221158 36 78 1.7 3.5 0.00 0.02 0.00 90 1020.1
20260507220258 36 83 1.7 3.5 0.00 0.03 0.00 89 1020.1
20260507215358 36 84 0.9 2.6 0.00 0.03 0.03 89 1020.0
20260507214458 37 87 1.7 3.5 0.00 0.03 0.03 89 1020.0
20260507213558 37 0 0.0 0.0 0.00 0.03 0.03 90 1019.8
20260507212658 37 242 0.0 0.9 0.00 0.03 0.03 90 1019.7
20260507211757 37 241 0.0 1.7 0.00 0.03 0.03 90 1019.7
20260507210858 37 241 0.0 0.9 0.00 0.04 0.03 90 1019.6
20260507205957 37 0 0.0 0.0 0.00 0.04 0.03 90 1019.6
20260507205058 37 241 0.0 2.6 0.00 0.04 0.03 90 1019.4
20260507203257 37 0 0.0 0.0 0.00 0.05 0.03 89 1019.3
20260507202357 37 243 0.0 0.9 0.00 0.05 0.03 89 1019.2
20260507201457 38 244 0.0 1.7 0.00 0.05 0.03 89 1019.2
20260507200558 38 244 0.0 1.7 0.00 0.05 0.03 89 1019.2
20260507195657 38 244 0.0 0.9 0.00 0.05 0.03 89 1019.1
20260507194758 38 243 0.0 0.9 0.01 0.05 0.03 89 1019.1
20260507193857 38 238 0.9 2.6 0.01 0.05 0.03 89 1019.0
20260507192957 38 242 1.7 6.1 0.01 0.06 0.03 89 1018.9
20260507192058 38 248 2.6 6.1 0.01 0.06 0.03 89 1018.8
20260507191159 38 255 1.7 6.1 0.01 0.06 0.03 89 1018.8
20260507190257 38 265 2.6 7.0 0.01 0.06 0.03 90 1018.6
20260507184457 37 259 10.4 18.2 0.00 0.05 0.02 89 1018.7
20260507183557 38 251 8.7 18.2 0.00 0.05 0.02 87 1018.8
20260507182659 39 257 5.2 8.7 0.00 0.05 0.02 85 1018.5
20260507181757 39 256 5.2 8.7 0.00 0.05 0.02 85 1018.4
20260507180859 39 269 3.5 8.7 0.00 0.05 0.02 86 1018.3
20260507175959 39 263 3.5 7.8 0.00 0.05 0.02 86 1018.2
20260507175057 40 266 4.3 7.8 0.00 0.05 0.02 86 1018.1
20260507174157 40 258 7.8 15.6 0.00 0.06 0.02 86 1018.1
20260507173259 40 252 7.0 12.2 0.00 0.06 0.02 84 1018.0
20260507172357 40 254 7.8 12.2 0.00 0.06 0.02 84 1018.0
20260507171457 40 254 6.1 10.4 0.00 0.06 0.02 83 1018.0
20260507170557 41 255 7.0 11.3 0.00 0.06 0.02 82 1017.8
20260507165657 41 255 8.7 13.9 0.00 0.06 0.02 81 1017.8
20260507164757 41 260 7.8 14.8 0.00 0.06 0.02 81 1017.8
20260507163859 41 251 8.7 13.9 0.00 0.06 0.02 82 1017.7
20260507162959 41 252 8.7 13.0 0.00 0.06 0.02 84 1017.7
20260507162059 40 256 8.7 13.0 0.00 0.07 0.02 84 1017.7
20260507161157 41 254 7.8 13.9 0.00 0.09 0.02 84 1017.6
20260507155357 40 252 8.7 12.2 0.00 0.11 0.02 85 1017.7
20260507154457 40 253 9.6 15.6 0.00 0.11 0.02 85 1017.7
20260507153557 40 254 8.7 14.8 0.00 0.12 0.02 84 1017.6
20260507152657 39 258 8.7 15.6 0.00 0.12 0.02 85 1017.7
20260507151757 39 256 11.3 16.5 0.00 0.12 0.02 85 1017.7
20260507150857 39 257 10.4 17.4 0.00 0.12 0.02 85 1017.6
20260507145957 40 250 12.2 22.6 0.00 0.12 0.02 84 1017.5
20260507145057 42 247 9.6 18.2 0.00 0.12 0.02 81 1017.4
20260507143257 42 251 8.7 15.6 0.00 0.12 0.02 78 1017.3
20260507142357 41 248 8.7 14.8 0.00 0.12 0.02 80 1017.4
20260507140557 41 248 10.4 19.1 0.00 0.12 0.02 82 1017.3
20260507135657 42 249 9.6 19.1 0.00 0.12 0.02 82 1017.1
20260507133857 43 248 8.7 15.6 0.00 0.12 0.02 79 1016.9
20260507132957 44 244 8.7 13.0 0.00 0.12 0.02 79 1016.8
20260507132057 43 246 7.8 13.9 0.00 0.12 0.02 78 1016.8
20260507131157 43 242 7.0 10.4 0.00 0.12 0.02 80 1016.8
20260507130257 42 244 8.7 13.0 0.00 0.12 0.02 81 1016.7
20260507124457 43 244 7.0 11.3 0.00 0.12 0.02 79 1016.8
20260507123556 43 244 7.0 12.2 0.00 0.12 0.02 79 1016.9
20260507121757 41 245 7.8 14.8 0.00 0.12 0.02 82 1016.7
20260507115056 41 250 8.7 16.5 0.00 0.12 0.02 85 1016.6
20260507114157 40 249 8.7 15.6 0.00 0.12 0.02 86 1016.5
20260507113256 40 248 7.8 14.8 0.00 0.12 0.02 87 1016.4
20260507112356 40 257 4.3 8.7 0.00 0.12 0.02 87 1016.4
20260507111456 39 250 7.8 15.6 0.00 0.12 0.02 86 1016.2
20260507110556 40 248 10.4 17.4 0.00 0.12 0.02 85 1016.0
20260507105656 41 251 9.6 16.5 0.00 0.12 0.02 84 1015.8
20260507104756 41 256 9.6 15.6 0.00 0.12 0.02 83 1015.8
20260507103856 41 246 7.8 13.0 0.00 0.12 0.02 83 1015.7
20260507102957 41 245 6.1 10.4 0.00 0.12 0.02 82 1015.6
20260507102056 41 246 7.0 12.2 0.00 0.12 0.02 82 1015.6
20260507095356 41 247 9.6 15.6 0.00 0.12 0.02 83 1015.5
20260507094456 41 247 7.8 13.9 0.00 0.12 0.02 83 1015.4
20260507093556 41 246 7.8 14.8 0.00 0.12 0.02 82 1015.2
20260507092656 41 250 7.8 12.2 0.00 0.12 0.02 82 1015.2
20260507090856 42 245 7.0 13.0 0.00 0.12 0.02 81 1015.0
20260507085956 42 250 7.0 10.4 0.00 0.12 0.02 80 1014.9
20260507085056 41 252 6.1 10.4 0.00 0.12 0.02 80 1014.9
20260507084156 42 248 5.2 9.6 0.00 0.12 0.02 81 1014.8
20260507083256 41 245 6.1 10.4 0.00 0.12 0.02 84 1014.7